Wetbulb
46.21 46.20 46.37 46.83 47.86 48.40 48.56 48.25 48.57 48.38 47.77 46.92 46.98 47.33 47.96 48.95 49.45 49.81 50.13 50.36 50.40 50.35 50.58 51.30 53.68 54.57 54.90 55.80 56.48 57.55 58.19 57.94 57.67 57.49 57.26 56.99 56.72 56.63 56.77 56.90 56.71 56.63 56.50 56.36 56.32 56.18 56.14 56.09 55.96 55.78 55.65 55.60 55.20 54.93 54.66 54.49 54.13 53.77 53.37 52.83 52.20 51.92 51.79 51.42 50.34 49.03 47.99 47.72 47.68
46.03 46.21 46.73 47.85 48.99 49.18 48.74 48.20 48.56 48.41 48.06 47.17 47.41 47.73 48.32 49.30 49.67 49.99 50.09 50.23 50.35 50.40 50.76 51.52 54.68 55.85 56.23 56.84 57.44 57.73 57.94 57.54 57.22 56.95 56.68 56.37 56.26 56.34 56.43 56.53 56.49 56.34 56.25 56.17 55.99 55.96 55.87 55.82 55.65 55.29 55.07 54.80 54.40 53.81 53.46 53.32 53.14 52.78 52.29 51.74 51.38 51.16 51.02 50.70 49.71 48.80 47.99 47.54 46.96
45.85 46.25 47.09 48.28 49.26 49.04 48.41 47.95 48.06 47.80 47.28 46.68 47.42 48.13 48.81 49.61 50.07 50.34 50.52 50.53 49.83 49.87 50.59 51.76 55.00 56.84 57.71 57.53 57.94 57.97 57.72 57.22 56.81 56.37 56.06 55.88 56.05 56.17 56.35 56.32 56.17 56.12 56.07 56.04 55.95 55.77 55.73 55.60 55.37 54.97 54.39 53.81 53.32 52.78 52.33 52.11 52.33 52.11 51.65 50.98 50.57 50.34 50.07 49.71 48.89 48.26 47.80 47.17 46.59
45.62 46.25 47.36 48.84 49.20 48.61 47.98 47.77 47.77 47.46 47.16 47.12 47.44 48.06 49.09 50.01 50.41 50.64 50.57 50.19 49.42 49.74 50.59 51.90 55.08 56.79 57.55 57.54 57.69 57.53 57.22 56.85 56.26 55.82 55.51 55.47 55.69 55.81 55.95 55.90 55.73 55.73 55.82 55.77 55.72 55.49 55.35 55.18 55.01 54.52 53.80 52.86 52.41 51.88 51.47 51.29 51.70 51.70 51.29 50.62 50.16 49.89 49.62 49.26 48.58 48.48 48.16 46.73 46.16
45.66 46.60 47.76 49.16 49.07 48.39 47.85 47.96 47.82 47.60 47.43 47.61 48.43 49.23 50.01 50.29 50.52 50.57 50.45 50.32 50.19 50.41 50.95 52.00 55.21 56.52 56.92 57.31 57.16 56.82 56.50 56.22 55.80 55.45 55.15 55.20 55.37 55.55 55.60 55.45 55.42 55.42 55.37 55.46 55.27 55.09 54.91 54.73 54.39 53.76 53.04 52.32 51.87 51.47 51.20 51.25 51.29 51.07 50.62 50.12 49.89 49.71 49.48 49.12 48.67 48.44 47.90 46.65 45.71
46.02 47.00 48.21 49.34 48.58 48.12 47.98 48.18 48.09 48.00 47.91 48.27 48.92 49.73 50.37 50.72 51.31 51.14 50.75 50.53 50.27 50.27 51.17 53.38 55.66 56.70 56.91 57.07 56.59 56.15 55.74 55.46 55.32 55.09 54.91 54.91 55.01 55.06 55.06 55.02 55.01 55.01 54.97 54.97 54.79 54.64 54.52 54.16 53.58 52.95 52.41 52.05 51.61 51.25 51.20 51.24 50.93 50.34 49.76 49.26 49.26 49.31 49.31 48.94 48.81 48.45 47.81 46.74 45.48
46.56 47.67 48.66 48.85 47.86 47.76 48.06 48.40 48.45 48.49 48.59 48.72 49.29 50.10 50.69 50.92 51.21 50.95 50.67 50.94 50.59 51.39 53.19 55.93 56.49 56.72 56.63 56.32 55.87 55.42 55.15 54.88 54.83 54.82 54.73 54.64 54.61 54.57 54.57 54.62 54.65 54.56 54.52 54.52 54.34 54.20 53.93 53.53 52.91 52.46 52.05 51.83 51.25 50.97 50.97 51.02 50.43 49.71 48.99 48.58 48.77 48.95 48.99 48.76 48.81 48.45 47.63 46.20 45.30
47.67 48.48 48.71 47.91 47.63 47.98 48.46 48.76 48.85 48.90 49.16 49.46 50.00 50.75 51.35 51.43 51.52 51.52 51.52 51.65 51.83 53.12 55.01 56.68 56.60 56.51 56.16 55.77 55.30 54.95 54.64 54.46 54.47 54.42 54.46 54.47 54.25 54.25 54.30 54.29 54.25 54.25 54.16 54.11 53.98 53.71 53.44 53.17 52.64 52.05 51.56 51.33 50.93 50.66 50.53 50.48 49.98 49.26 48.67 48.22 48.45 48.77 48.90 48.81 48.54 48.04 47.18 46.02 45.12
48.67 48.80 48.49 47.72 48.16 48.73 49.12 49.25 49.39 49.52 49.65 50.00 50.58 51.20 51.70 51.88 51.69 51.88 52.20 52.65 53.73 55.03 56.01 56.25 56.25 56.18 55.78 55.21 54.80 54.58 54.37 54.10 54.04 54.10 54.15 54.01 53.89 53.85 53.94 53.99 53.94 53.90 53.90 53.85 53.62 53.39 53.03 52.86 52.23 51.83 51.38 51.06 50.61 50.34 50.12 49.89 49.35 48.90 48.40 48.22 48.31 48.45 48.49 48.49 47.86 47.32 46.69 45.93 44.81
48.76 48.85 48.66 48.48 49.00 49.39 49.79 50.02 50.06 50.38 50.51 50.60 50.91 51.35 51.70 51.96 52.05 52.73 53.77 55.04 55.62 56.15 56.29 55.75 55.89 55.77 55.36 54.81 54.57 54.39 54.27 54.11 53.93 53.81 53.77 53.75 53.75 53.67 53.72 53.72 53.58 53.49 53.36 53.36 53.26 53.03 52.76 52.46 51.83 51.38 51.16 50.88 50.34 49.98 49.71 49.53 49.03 48.67 48.40 48.36 48.31 48.13 47.86 47.68 46.96 46.55 46.10 45.57 44.18
48.89 49.07 49.33 49.55 49.90 50.20 50.52 50.61 50.88 51.24 51.37 51.15 50.92 51.01 51.26 51.52 52.37 53.60 54.87 56.14 55.73 55.65 55.75 55.48 55.70 55.40 55.08 54.71 54.48 54.30 54.14 53.96 53.82 53.81 53.60 53.57 53.57 53.66 53.62 53.57 53.39 53.22 52.99 53.09 52.99 52.81 52.45 52.01 51.33 50.84 50.57 50.43 50.02 49.80 49.53 49.26 48.90 48.67 48.45 48.49 48.22 47.77 47.23 46.64 46.37 45.97 45.43 44.54 43.11
49.43 49.65 50.01 50.32 50.62 50.80 50.93 50.98 51.57 51.84 51.97 51.65 50.82 50.42 50.48 51.22 53.12 54.30 54.93 55.43 55.33 55.38 55.39 55.47 55.54 55.35 55.03 54.63 54.45 54.30 54.17 54.00 53.86 53.64 53.47 53.48 53.57 53.57 53.48 53.34 53.21 53.03 52.90 52.95 52.95 52.63 52.23 51.55 50.93 50.39 50.07 49.98 49.85 49.62 49.35 49.08 48.90 48.63 48.45 48.27 48.09 47.50 46.78 46.01 45.70 45.34 44.72 43.65 42.02
50.15 50.33 50.55 50.82 51.08 51.16 51.16 51.30 51.81 52.03 52.03 51.89 50.88 50.43 50.93 52.57 54.16 54.67 54.71 54.88 55.24 55.34 55.34 55.42 55.44 55.30 55.07 54.65 54.43 54.26 54.09 54.00 53.82 53.60 53.48 53.44 53.44 53.39 53.30 53.17 52.99 52.90 52.81 52.81 52.81 52.45 51.92 51.24 50.74 50.20 49.80 49.67 49.67 49.58 49.40 49.17 48.99 48.67 48.36 48.04 47.64 46.96 46.19 45.38 44.93 44.36 43.56 42.51 40.74
50.56 50.56 50.74 51.04 51.21 51.25 51.17 51.13 51.54 51.77 51.82 51.85 51.20 51.02 51.88 54.30 54.58 54.68 54.71 55.01 55.05 55.15 55.16 55.34 55.42 55.26 55.10 54.73 54.47 54.28 54.10 53.87 53.69 53.47 53.34 53.35 53.30 53.17 53.04 52.90 52.90 52.81 52.82 52.73 52.59 52.09 51.60 51.06 50.65 50.34 49.93 49.58 49.49 49.44 49.44 49.39 49.12 48.81 48.40 47.91 47.23 46.37 45.47 44.81 44.19 43.48 42.43 41.05 38.96
50.16 50.47 50.83 51.22 51.39 51.44 51.26 51.08 51.36 51.49 51.90 52.35 52.02 52.11 52.97 54.99 54.68 54.68 54.79 54.99 55.05 55.10 55.25 55.16 55.11 55.10 54.95 54.70 54.44 54.27 54.01 53.74 53.55 53.29 53.21 53.17 53.12 52.99 52.90 52.82 52.82 52.73 52.68 52.41 52.19 51.83 51.51 51.01 50.74 50.43 50.07 49.71 49.53 49.53 49.53 49.57 49.35 49.03 48.58 47.91 47.05 46.11 45.03 44.15 43.62 42.80 41.76 40.01 38.06
49.62 50.07 50.61 51.10 51.50 51.76 51.76 51.62 51.80 52.16 52.62 53.22 52.93 53.24 53.93 54.82 54.54 54.71 55.01 55.07 55.04 55.15 55.11 54.93 54.85 54.80 54.70 54.55 54.27 54.05 53.82 53.60 53.47 53.30 53.12 52.95 52.90 52.81 52.77 52.68 52.64 52.46 52.28 51.96 51.79 51.51 51.38 51.24 50.92 50.65 50.34 49.89 49.71 49.67 49.67 49.57 49.30 48.94 48.40 47.68 46.82 45.71 44.81 43.98 43.29 42.38 41.31 39.92 38.23
48.76 49.26 49.76 50.43 51.07 51.74 52.27 52.39 52.80 53.21 53.49 53.80 53.93 54.34 54.58 54.41 54.45 54.71 54.95 55.12 54.94 54.91 54.84 54.71 54.66 54.48 54.35 54.16 54.19 54.01 53.74 53.57 53.39 53.30 53.08 52.95 52.81 52.72 52.68 52.59 52.41 52.23 51.96 51.64 51.33 51.25 51.16 51.16 51.07 50.93 50.52 50.25 49.98 49.89 49.62 49.48 48.98 48.49 47.72 46.96 46.06 45.22 44.51 43.95 43.04 41.92 40.90 39.86 38.38
48.04 48.54 49.13 49.76 50.17 51.07 52.15 52.90 53.49 53.85 53.98 54.20 54.70 54.85 54.63 54.36 54.54 54.75 54.95 55.12 54.99 54.73 54.52 54.34 54.39 54.25 54.07 53.89 53.93 54.02 53.84 53.53 53.40 53.26 53.17 53.04 52.90 52.72 52.59 52.37 52.23 52.00 51.82 51.46 51.28 51.11 51.02 51.02 51.07 50.93 50.75 50.43 50.20 49.93 49.57 49.16 48.49 47.81 47.00 46.16 45.26 44.47 43.72 43.12 42.26 41.46 40.63 39.50 38.25
47.91 48.49 48.95 49.26 49.81 50.71 51.70 52.87 53.36 53.80 54.30 54.75 54.80 54.77 54.59 54.54 54.76 54.84 54.92 54.82 54.82 54.55 54.28 54.11 54.07 54.02 53.93 53.84 53.84 53.89 53.85 53.62 53.40 53.26 53.17 53.04 52.90 52.63 52.36 52.23 52.10 51.87 51.69 51.46 51.33 51.24 51.16 51.11 51.07 50.88 50.61 50.34 49.98 49.57 49.07 48.39 47.72 46.87 46.03 45.14 44.26 43.33 42.49 41.74 40.98 40.47 39.88 38.85 37.70
48.36 48.63 48.90 49.26 49.94 50.61 51.61 52.83 53.14 53.90 54.57 55.02 54.66 54.49 54.59 54.67 54.79 54.74 54.52 54.43 54.55 54.41 54.19 53.97 53.85 53.80 53.80 53.80 53.71 53.72 53.72 53.72 53.40 53.17 52.99 52.90 52.63 52.45 52.28 52.14 51.96 51.83 51.74 51.55 51.42 51.38 51.25 51.16 51.02 50.66 50.34 49.79 49.11 48.48 47.77 47.09 46.29 45.45 44.71 44.06 42.83 41.89 41.00 40.22 39.57 38.91 38.25 37.56 36.76
48.77 48.94 49.21 49.58 50.07 50.88 51.92 53.19 53.73 54.39 54.79 54.79 54.52 54.39 54.44 54.61 54.55 54.37 54.25 54.20 54.19 54.19 54.05 53.84 53.66 53.62 53.49 53.49 53.45 53.31 53.36 53.49 53.22 52.99 52.77 52.63 52.59 52.41 52.28 52.19 52.01 51.83 51.78 51.70 51.52 51.43 51.25 50.97 50.70 50.29 49.65 48.88 48.03 47.27 46.51 45.72 44.84 43.98 43.20 42.43 41.12 40.02 39.19 38.46 37.83 37.29 36.70 36.28 35.84
49.13 49.44 49.57 49.84 50.29 51.38 52.69 53.68 54.35 54.70 54.74 54.47 54.39 54.30 54.25 54.19 54.01 53.97 54.01 54.15 54.05 53.92 53.69 53.66 53.52 53.39 53.35 53.17 53.04 53.04 53.09 53.13 53.04 52.95 52.86 52.68 52.50 52.46 52.46 52.37 52.10 51.83 51.70 51.52 51.43 51.25 50.97 50.74 50.15 49.51 48.84 47.94 47.14 46.34 45.50 44.63 43.46 42.34 41.29 39.97 38.95 38.04 37.22 36.61 36.17 35.77 35.44 35.18 34.85
49.44 49.71 49.93 50.24 51.10 52.32 53.50 54.17 54.57 54.56 54.34 54.16 54.12 54.02 53.89 53.80 53.75 53.84 53.84 53.92 53.79 53.70 53.57 53.48 53.39 53.24 53.15 52.97 52.89 52.90 52.81 52.82 52.77 52.77 52.73 52.64 52.51 52.42 52.41 52.28 51.96 51.60 51.43 51.34 51.07 50.70 50.34 49.89 49.25 48.62 47.99 47.23 46.38 45.59 44.84 43.85 42.60 41.21 39.74 38.30 37.33 36.41 35.67 35.13 34.84 34.63 34.51 34.54 34.48
49.84 50.11 50.56 51.56 52.50 53.36 54.03 54.52 54.34 54.11 53.94 53.80 53.71 53.62 53.57 53.44 53.57 53.66 53.66 53.70 53.57 53.48 53.34 53.40 53.35 53.20 53.15 53.11 52.93 52.75 52.67 52.55 52.32 52.33 52.33 52.33 52.28 52.15 52.01 51.96 51.60 51.34 51.07 50.97 50.70 50.34 49.75 49.08 48.36 47.90 47.41 46.78 46.03 45.19 44.26 43.01 41.65 40.15 38.72 37.53 36.37 35.39 34.70 34.19 34.18 34.22 34.38 34.68 35.15
50.51 51.05 51.82 53.05 53.41 53.94 54.25 54.25 53.94 53.71 53.53 53.48 53.48 53.44 53.39 53.39 53.44 53.48 53.48 53.34 53.30 53.25 53.21 53.21 53.21 53.15 53.15 52.97 52.88 52.71 52.49 52.27 52.01 51.88 51.70 51.74 51.79 51.69 51.56 51.38 51.07 50.84 50.75 50.79 50.78 50.55 50.01 49.29 48.35 47.63 46.83 45.94 44.85 43.76 42.69 41.49 40.45 39.48 38.53 37.42 36.23 35.20 34.46 33.87 34.08 34.40 34.91 35.80 37.07
51.87 52.46 53.14 53.59 53.90 53.94 53.94 53.80 53.57 53.48 53.44 53.39 53.34 53.39 53.35 53.39 53.44 53.34 53.25 53.12 53.12 53.17 53.07 53.07 53.03 53.03 52.94 52.85 52.62 52.49 52.32 52.19 51.83 51.55 51.33 51.16 51.07 50.93 50.93 50.70 50.53 50.48 50.48 50.74 50.78 50.63 50.21 49.76 48.90 47.60 46.02 44.51 43.32 42.18 41.14 40.18 39.44 38.76 38.12 37.28 36.49 35.79 35.09 34.76 34.95 35.69 36.76 38.01 39.14
53.14 53.41 53.63 53.89 53.89 53.71 53.53 53.48 53.44 53.39 53.30 53.25 53.30 53.21 53.30 53.34 53.30 53.21 52.94 52.95 52.94 52.99 52.94 52.99 52.90 52.76 52.67 52.58 52.22 51.91 51.74 51.69 51.51 51.24 50.97 50.74 50.39 50.16 50.07 50.07 50.12 50.16 50.34 50.78 50.72 50.52 50.09 49.49 48.59 47.18 45.32 43.29 42.29 41.29 40.38 39.39 38.53 38.00 37.57 37.05 36.61 36.22 35.92 35.80 36.30 37.04 37.83 38.56 39.23
53.63 53.77 53.81 53.80 53.49 53.40 53.40 53.44 53.35 53.21 53.17 53.21 53.21 53.21 53.35 53.20 53.02 52.89 52.85 52.77 52.76 52.81 52.72 52.68 52.63 52.54 52.45 52.00 51.60 51.28 51.19 51.06 50.92 50.70 50.47 50.24 49.98 49.80 49.71 49.76 49.94 50.25 50.56 50.81 50.59 50.11 49.59 48.78 47.85 46.51 44.98 42.87 41.41 40.29 39.55 38.90 38.38 37.99 37.63 37.15 36.71 36.57 36.66 36.91 37.20 37.50 37.73 37.85 38.25
53.81 53.76 53.53 53.35 53.27 53.27 53.22 53.21 53.12 53.12 53.17 53.30 53.30 53.21 53.21 53.03 52.85 52.67 52.67 52.54 52.49 52.32 52.23 52.23 52.28 52.05 51.60 51.10 50.92 50.70 50.56 50.38 50.29 50.16 49.93 49.71 49.53 49.44 49.44 49.53 49.62 50.01 50.39 50.48 50.08 49.53 48.81 48.06 47.24 46.21 45.02 43.46 41.53 40.42 39.76 39.34 38.76 38.29 37.78 37.51 37.30 37.26 37.34 37.43 37.51 37.46 37.46 37.59 37.84
53.66 53.48 53.35 53.08 53.13 53.13 53.04 53.08 53.17 53.22 53.30 53.35 53.21 53.03 52.85 52.67 52.49 52.40 52.40 52.27 52.09 51.91 51.96 51.87 51.60 51.19 50.74 50.47 50.38 50.29 50.02 49.93 49.89 49.66 49.39 49.12 48.89 48.89 48.89 49.11 49.19 49.48 49.76 49.90 49.47 48.84 48.19 47.58 46.81 45.99 44.98 43.79 41.87 40.42 39.57 39.28 38.73 38.30 37.83 37.56 37.34 37.21 37.20 37.24 37.17 37.13 37.27 37.53 38.19
53.52 53.39 53.25 53.12 52.99 53.09 53.09 53.17 53.26 53.30 53.21 53.12 52.84 52.71 52.58 52.35 52.27 52.13 52.04 51.91 51.69 51.69 51.59 51.45 51.00 50.65 50.47 50.33 50.20 49.89 49.57 49.48 49.39 49.25 48.89 48.62 48.48 48.39 48.30 48.37 48.26 48.55 48.93 49.22 48.77 48.24 47.72 47.11 46.38 45.57 44.80 43.79 41.67 40.11 39.06 38.73 38.30 37.90 37.46 37.14 36.88 36.83 36.90 37.01 36.96 37.04 37.40 37.95 38.52
53.52 53.29 53.25 53.12 52.95 53.04 53.04 53.22 53.21 53.12 52.97 52.80 52.66 52.39 52.22 52.04 51.95 51.86 51.86 51.77 51.50 51.41 51.13 50.91 50.51 50.20 50.02 49.84 49.57 49.30 49.03 48.89 48.71 48.53 48.22 47.99 47.67 47.54 47.48 47.33 47.41 47.79 48.35 48.74 48.29 47.72 47.20 46.60 45.82 45.10 44.21 43.25 41.17 39.50 38.37 37.94 37.52 37.13 36.82 36.55 36.50 36.57 36.70 36.95 37.12 37.32 37.74 38.22 38.29
53.52 53.39 53.21 52.99 52.90 52.90 52.95 52.99 52.94 52.80 52.71 52.48 52.31 52.04 51.86 51.73 51.73 51.68 51.59 51.49 51.31 51.04 50.69 50.42 49.97 49.75 49.44 49.12 48.85 48.53 48.40 48.26 48.04 47.99 47.76 47.54 47.27 47.05 46.82 46.72 46.93 47.49 48.00 48.21 47.72 47.16 46.51 45.91 45.19 44.38 43.54 42.45 40.35 38.89 37.93 37.53 37.19 36.71 36.32 36.26 36.26 36.43 36.62 36.96 37.37 37.58 37.78 37.82 37.68
53.30 53.12 52.89 52.76 52.63 52.63 52.67 52.62 52.57 52.48 52.26 52.04 51.95 51.77 51.59 51.41 51.28 51.24 51.19 51.23 51.09 50.87 50.55 50.20 49.88 49.52 49.16 48.94 48.49 48.17 47.90 47.81 47.59 47.36 47.09 47.05 46.87 46.60 46.29 46.02 46.45 47.13 47.66 47.56 47.12 46.60 46.00 45.36 44.59 43.75 42.91 41.70 39.55 38.22 37.48 37.01 36.66 36.34 36.14 36.04 36.36 36.69 37.06 37.31 37.41 37.47 37.44 37.18 37.06
52.80 52.57 52.40 52.31 52.31 52.27 52.27 52.22 52.12 52.03 51.86 51.55 51.37 51.28 51.19 51.10 50.83 50.70 50.56 50.60 50.42 50.24 49.97 49.75 49.52 49.30 48.89 48.67 48.21 47.90 47.54 47.23 47.05 46.92 46.83 46.74 46.51 46.20 45.81 45.72 46.07 46.77 47.14 46.91 46.48 46.01 45.41 44.81 43.92 42.99 41.85 40.29 38.41 37.28 36.58 36.22 36.05 35.97 36.05 36.29 36.60 36.81 37.04 37.27 37.28 37.27 37.17 36.99 36.79
52.38 52.16 51.90 51.86 51.86 51.77 51.77 51.67 51.58 51.36 51.14 50.87 50.70 50.56 50.47 50.38 50.33 50.29 50.20 49.97 49.61 49.30 48.98 48.89 48.76 48.53 48.26 47.90 47.81 47.54 47.27 46.92 46.74 46.60 46.56 46.51 46.16 45.84 45.57 45.62 45.89 46.43 46.68 46.50 46.15 45.63 45.11 44.43 43.53 42.55 41.21 39.36 37.89 37.06 36.62 36.21 36.08 36.06 36.24 36.49 36.65 36.86 37.04 37.23 37.13 37.06 37.06 37.11 37.22
52.07 51.80 51.58 51.41 51.27 51.27 51.18 51.09 50.91 50.55 50.33 50.20 50.11 50.06 50.02 49.93 49.93 50.02 49.88 49.56 49.11 48.71 48.44 48.26 47.99 47.72 47.50 47.36 47.23 47.18 47.09 46.96 46.65 46.38 46.29 46.25 46.02 45.75 45.56 45.52 45.74 46.11 46.38 46.38 46.03 45.59 45.03 44.33 43.38 42.28 40.74 38.78 37.74 37.19 36.89 36.66 36.44 36.41 36.49 36.59 36.85 37.01 37.22 37.35 37.19 37.13 37.22 37.46 37.71
51.71 51.44 51.22 50.95 50.73 50.73 50.64 50.55 50.33 50.11 49.88 49.88 50.02 50.06 50.06 50.02 49.84 49.84 49.65 49.29 48.71 48.26 47.81 47.63 47.36 47.18 47.18 47.14 47.09 47.09 47.09 47.05 46.69 46.38 46.20 46.20 46.11 45.84 45.56 45.33 45.38 45.65 45.88 46.02 45.85 45.41 44.83 44.18 43.30 42.16 40.73 38.84 38.07 37.67 37.41 37.06 36.78 36.72 36.83 37.04 37.12 37.31 37.55 37.82 37.94 37.97 38.16 38.37 39.13
51.31 51.17 50.95 50.68 50.51 50.42 50.28 50.15 49.97 49.79 49.79 49.79 49.84 49.88 49.88 49.79 49.66 49.43 49.25 49.02 48.53 47.99 47.45 47.18 47.05 47.05 47.14 47.05 46.96 46.87 46.78 46.87 46.83 46.60 46.29 46.07 46.02 45.80 45.39 44.75 44.61 44.75 45.11 45.44 45.27 44.87 44.44 43.87 43.21 42.34 41.06 39.28 38.30 37.78 37.48 37.02 36.60 36.62 36.71 36.88 37.03 37.32 37.67 38.26 38.51 38.77 39.08 39.41 40.41
51.13 50.99 50.81 50.46 50.28 50.10 49.83 49.66 49.61 49.61 49.61 49.52 49.30 49.21 49.16 49.12 49.03 49.03 48.93 48.75 48.39 47.85 47.36 47.05 46.96 46.96 47.09 46.96 46.64 46.42 46.33 46.42 46.51 46.42 46.20 45.71 45.58 45.31 44.81 44.04 43.80 43.95 44.27 44.74 44.52 44.36 44.01 43.53 42.97 42.07 40.86 38.92 38.06 37.68 37.31 36.88 36.45 36.28 36.36 36.65 36.86 37.27 37.54 38.04 38.47 38.76 39.00 39.37 40.38
50.82 50.69 50.41 50.19 49.97 49.65 49.38 49.16 49.12 49.16 49.07 48.98 48.85 48.80 48.85 48.85 48.71 48.62 48.44 48.17 47.72 47.27 46.87 46.38 46.24 46.19 46.02 45.97 45.61 45.34 45.07 45.07 45.34 45.43 45.39 45.04 44.82 44.55 44.10 43.47 43.20 43.21 43.45 43.96 44.06 43.98 43.63 43.21 42.70 41.85 40.62 38.73 37.82 37.52 37.37 36.89 36.34 35.99 36.00 36.38 36.81 37.06 37.10 37.26 37.65 38.08 38.45 38.75 39.38
MSLP
1002.73 1002.85 1002.89 1002.89 1002.89 1002.89 1002.93 1003.05 1003.21 1003.33 1003.45 1003.57 1003.69 1003.81 1003.93 1004.09 1004.21 1004.33 1004.37 1004.41 1004.45 1004.49 1004.49 1004.57 1004.61 1004.69 1004.77 1004.85 1004.93 1005.05 1005.17 1005.37 1005.57 1005.85 1006.09 1006.29 1006.49 1006.73 1007.05 1007.33 1007.61 1007.77 1007.97 1008.13 1008.33 1008.53 1008.77 1008.97 1009.21 1009.49 1009.73 1009.97 1010.21 1010.41 1010.61 1010.77 1011.01 1011.21 1011.37 1011.61 1011.93 1012.29 1012.57 1012.85 1013.13 1013.49 1013.77 1014.05 1014.29
1002.53 1002.65 1002.73 1002.73 1002.69 1002.73 1002.81 1002.93 1003.05 1003.21 1003.37 1003.49 1003.57 1003.69 1003.81 1003.97 1004.09 1004.21 1004.25 1004.33 1004.33 1004.37 1004.41 1004.49 1004.53 1004.61 1004.65 1004.73 1004.81 1004.93 1005.05 1005.25 1005.53 1005.81 1006.09 1006.29 1006.49 1006.73 1007.05 1007.37 1007.65 1007.81 1007.97 1008.17 1008.33 1008.53 1008.77 1009.01 1009.21 1009.49 1009.77 1010.05 1010.25 1010.49 1010.77 1010.93 1011.17 1011.37 1011.49 1011.73 1012.01 1012.29 1012.57 1012.77 1013.05 1013.33 1013.65 1013.93 1014.21
1002.41 1002.57 1002.65 1002.61 1002.57 1002.61 1002.69 1002.77 1002.89 1003.05 1003.25 1003.37 1003.49 1003.57 1003.73 1003.85 1003.93 1004.09 1004.13 1004.21 1004.29 1004.33 1004.37 1004.41 1004.49 1004.49 1004.49 1004.65 1004.69 1004.85 1005.01 1005.21 1005.53 1005.81 1006.09 1006.33 1006.53 1006.77 1007.05 1007.37 1007.65 1007.89 1008.05 1008.17 1008.37 1008.57 1008.77 1009.05 1009.29 1009.53 1009.81 1010.09 1010.33 1010.61 1010.89 1011.17 1011.33 1011.49 1011.65 1011.81 1012.09 1012.37 1012.57 1012.77 1013.05 1013.33 1013.57 1013.85 1014.09
1002.33 1002.41 1002.49 1002.45 1002.45 1002.49 1002.61 1002.65 1002.81 1003.05 1003.21 1003.29 1003.37 1003.49 1003.65 1003.73 1003.81 1003.93 1004.01 1004.09 1004.21 1004.29 1004.33 1004.37 1004.41 1004.41 1004.41 1004.49 1004.65 1004.81 1005.05 1005.25 1005.57 1005.85 1006.13 1006.37 1006.61 1006.81 1007.09 1007.41 1007.69 1007.93 1008.09 1008.21 1008.41 1008.65 1008.89 1009.13 1009.37 1009.65 1009.93 1010.21 1010.49 1010.73 1010.97 1011.21 1011.45 1011.65 1011.77 1011.93 1012.13 1012.37 1012.57 1012.77 1013.09 1013.37 1013.57 1013.77 1013.93
1002.21 1002.29 1002.37 1002.37 1002.37 1002.45 1002.49 1002.53 1002.77 1002.97 1003.09 1003.21 1003.33 1003.45 1003.57 1003.65 1003.77 1003.85 1003.97 1004.09 1004.13 1004.17 1004.21 1004.29 1004.37 1004.41 1004.45 1004.49 1004.65 1004.85 1005.09 1005.37 1005.61 1005.89 1006.17 1006.41 1006.65 1006.93 1007.17 1007.45 1007.73 1007.93 1008.13 1008.29 1008.49 1008.69 1008.93 1009.21 1009.49 1009.77 1010.09 1010.33 1010.57 1010.85 1011.05 1011.29 1011.49 1011.73 1011.93 1012.09 1012.21 1012.41 1012.65 1012.93 1013.21 1013.37 1013.57 1013.73 1013.89
1002.09 1002.21 1002.29 1002.29 1002.37 1002.37 1002.41 1002.49 1002.65 1002.89 1003.05 1003.13 1003.25 1003.37 1003.49 1003.57 1003.65 1003.77 1003.89 1003.93 1004.05 1004.13 1004.21 1004.21 1004.29 1004.37 1004.41 1004.49 1004.73 1004.93 1005.17 1005.41 1005.65 1005.93 1006.17 1006.41 1006.65 1006.93 1007.21 1007.49 1007.77 1007.97 1008.17 1008.33 1008.53 1008.77 1009.01 1009.21 1009.57 1009.89 1010.17 1010.45 1010.73 1010.93 1011.17 1011.37 1011.57 1011.77 1011.97 1012.17 1012.37 1012.57 1012.77 1012.93 1013.21 1013.41 1013.61 1013.77 1013.93
1002.01 1002.09 1002.21 1002.21 1002.29 1002.29 1002.33 1002.45 1002.65 1002.81 1002.97 1003.05 1003.21 1003.29 1003.37 1003.49 1003.57 1003.65 1003.77 1003.85 1004.01 1004.09 1004.17 1004.21 1004.25 1004.29 1004.37 1004.49 1004.77 1005.01 1005.21 1005.49 1005.77 1005.97 1006.21 1006.45 1006.73 1006.97 1007.25 1007.57 1007.81 1008.01 1008.21 1008.37 1008.57 1008.81 1009.05 1009.29 1009.61 1009.93 1010.21 1010.49 1010.77 1011.05 1011.25 1011.41 1011.65 1011.85 1012.09 1012.29 1012.57 1012.73 1012.85 1013.01 1013.21 1013.41 1013.65 1013.89 1014.01
1001.93 1002.05 1002.09 1002.17 1002.21 1002.21 1002.25 1002.37 1002.61 1002.77 1002.93 1003.01 1003.09 1003.21 1003.29 1003.41 1003.49 1003.57 1003.65 1003.77 1003.93 1004.05 1004.09 1004.09 1004.17 1004.17 1004.21 1004.45 1004.77 1005.05 1005.29 1005.53 1005.81 1006.05 1006.25 1006.49 1006.73 1007.01 1007.33 1007.69 1007.93 1008.09 1008.25 1008.41 1008.65 1008.85 1009.09 1009.33 1009.65 1009.93 1010.21 1010.49 1010.77 1011.05 1011.33 1011.49 1011.69 1011.89 1012.09 1012.37 1012.65 1012.77 1012.89 1012.97 1013.21 1013.49 1013.77 1013.97 1014.09
1001.89 1001.97 1002.09 1002.09 1002.09 1002.13 1002.21 1002.37 1002.53 1002.73 1002.85 1002.97 1003.01 1003.09 1003.21 1003.33 1003.41 1003.49 1003.65 1003.73 1003.81 1003.93 1004.01 1004.05 1004.13 1004.17 1004.21 1004.45 1004.81 1005.09 1005.37 1005.57 1005.85 1006.13 1006.37 1006.61 1006.81 1007.09 1007.45 1007.77 1007.97 1008.21 1008.37 1008.49 1008.65 1008.89 1009.13 1009.37 1009.69 1009.97 1010.21 1010.49 1010.77 1011.05 1011.33 1011.49 1011.73 1011.93 1012.21 1012.45 1012.65 1012.85 1012.97 1013.09 1013.33 1013.61 1013.89 1014.05 1014.21
1001.81 1001.89 1001.93 1002.05 1002.09 1002.09 1002.21 1002.37 1002.57 1002.69 1002.77 1002.93 1002.93 1003.05 1003.13 1003.25 1003.37 1003.45 1003.49 1003.61 1003.73 1003.89 1003.97 1004.05 1004.09 1004.13 1004.21 1004.49 1004.81 1005.17 1005.41 1005.65 1005.93 1006.17 1006.41 1006.65 1006.93 1007.21 1007.49 1007.77 1008.01 1008.21 1008.41 1008.65 1008.77 1008.93 1009.17 1009.45 1009.77 1010.05 1010.29 1010.53 1010.77 1011.05 1011.33 1011.49 1011.77 1012.01 1012.29 1012.49 1012.73 1012.93 1013.05 1013.21 1013.45 1013.69 1013.93 1014.13 1014.29
1001.73 1001.77 1001.89 1001.93 1002.01 1002.13 1002.29 1002.41 1002.57 1002.65 1002.77 1002.89 1002.93 1003.05 1003.13 1003.21 1003.33 1003.37 1003.49 1003.65 1003.73 1003.81 1003.93 1004.09 1004.09 1004.17 1004.33 1004.53 1004.85 1005.13 1005.41 1005.65 1005.93 1006.21 1006.41 1006.65 1006.93 1007.25 1007.49 1007.77 1007.97 1008.21 1008.45 1008.65 1008.81 1009.01 1009.21 1009.49 1009.81 1010.09 1010.37 1010.65 1010.89 1011.13 1011.37 1011.61 1011.77 1012.05 1012.29 1012.57 1012.77 1012.93 1013.09 1013.29 1013.53 1013.77 1014.01 1014.21 1014.37
1001.69 1001.77 1001.89 1001.97 1002.09 1002.21 1002.33 1002.45 1002.57 1002.65 1002.77 1002.93 1002.97 1003.05 1003.13 1003.21 1003.25 1003.37 1003.53 1003.69 1003.69 1003.77 1003.93 1004.09 1004.09 1004.21 1004.37 1004.65 1004.93 1005.21 1005.49 1005.73 1005.97 1006.21 1006.49 1006.73 1007.01 1007.29 1007.61 1007.85 1008.09 1008.25 1008.49 1008.65 1008.85 1009.05 1009.33 1009.57 1009.81 1010.09 1010.37 1010.69 1010.93 1011.21 1011.41 1011.65 1011.85 1012.09 1012.33 1012.61 1012.85 1013.01 1013.13 1013.37 1013.61 1013.81 1014.01 1014.21 1014.41
1001.65 1001.77 1001.93 1002.01 1002.09 1002.21 1002.33 1002.45 1002.61 1002.73 1002.85 1002.97 1003.05 1003.05 1003.09 1003.17 1003.21 1003.41 1003.61 1003.69 1003.69 1003.81 1004.01 1004.13 1004.17 1004.25 1004.41 1004.69 1004.97 1005.25 1005.53 1005.81 1006.01 1006.25 1006.53 1006.77 1007.09 1007.41 1007.69 1007.93 1008.17 1008.37 1008.57 1008.77 1008.93 1009.17 1009.37 1009.65 1009.89 1010.13 1010.37 1010.69 1011.01 1011.21 1011.45 1011.65 1011.89 1012.09 1012.37 1012.61 1012.89 1013.05 1013.21 1013.41 1013.65 1013.81 1014.01 1014.21 1014.49
1001.65 1001.77 1001.89 1002.01 1002.09 1002.21 1002.37 1002.49 1002.65 1002.81 1002.89 1002.97 1002.97 1003.01 1003.05 1003.17 1003.33 1003.49 1003.61 1003.65 1003.73 1003.89 1004.05 1004.21 1004.29 1004.37 1004.53 1004.77 1005.05 1005.37 1005.61 1005.85 1006.09 1006.37 1006.61 1006.85 1007.21 1007.53 1007.81 1008.09 1008.29 1008.49 1008.65 1008.89 1009.09 1009.29 1009.49 1009.73 1009.93 1010.21 1010.45 1010.73 1011.01 1011.29 1011.49 1011.69 1011.93 1012.13 1012.37 1012.65 1012.89 1013.13 1013.37 1013.57 1013.65 1013.77 1013.93 1014.21 1014.61
1001.65 1001.77 1001.89 1002.01 1002.09 1002.21 1002.37 1002.53 1002.69 1002.77 1002.85 1002.89 1002.89 1002.97 1003.09 1003.21 1003.37 1003.49 1003.61 1003.61 1003.73 1003.93 1004.09 1004.25 1004.37 1004.53 1004.69 1004.93 1005.21 1005.45 1005.69 1005.93 1006.21 1006.45 1006.69 1007.01 1007.37 1007.65 1007.93 1008.17 1008.37 1008.57 1008.77 1009.01 1009.21 1009.45 1009.65 1009.85 1010.09 1010.29 1010.53 1010.77 1011.05 1011.33 1011.61 1011.81 1012.01 1012.21 1012.49 1012.73 1012.93 1013.21 1013.49 1013.65 1013.73 1013.77 1013.89 1014.21 1014.65
1001.77 1001.89 1001.97 1002.09 1002.13 1002.25 1002.41 1002.49 1002.65 1002.73 1002.77 1002.77 1002.81 1002.93 1003.13 1003.29 1003.37 1003.49 1003.49 1003.57 1003.77 1004.01 1004.21 1004.37 1004.49 1004.69 1004.93 1005.13 1005.37 1005.53 1005.77 1006.09 1006.29 1006.49 1006.81 1007.21 1007.53 1007.81 1008.09 1008.29 1008.49 1008.65 1008.89 1009.09 1009.37 1009.57 1009.77 1009.97 1010.21 1010.41 1010.65 1010.85 1011.09 1011.37 1011.65 1011.93 1012.13 1012.37 1012.61 1012.85 1013.09 1013.37 1013.65 1013.77 1013.73 1013.77 1013.93 1014.25 1014.65
1001.93 1002.09 1002.13 1002.21 1002.25 1002.33 1002.37 1002.49 1002.57 1002.65 1002.65 1002.73 1002.81 1002.93 1003.13 1003.29 1003.37 1003.45 1003.49 1003.65 1003.85 1004.09 1004.25 1004.45 1004.65 1004.85 1005.09 1005.33 1005.49 1005.69 1005.93 1006.13 1006.37 1006.65 1007.05 1007.41 1007.69 1007.93 1008.17 1008.37 1008.53 1008.77 1008.97 1009.21 1009.41 1009.69 1009.93 1010.17 1010.37 1010.53 1010.73 1010.97 1011.25 1011.49 1011.77 1012.01 1012.21 1012.49 1012.77 1013.01 1013.29 1013.57 1013.77 1013.81 1013.73 1013.77 1014.05 1014.37 1014.65
1001.97 1002.09 1002.21 1002.33 1002.37 1002.41 1002.41 1002.49 1002.53 1002.61 1002.65 1002.65 1002.77 1002.93 1003.09 1003.21 1003.37 1003.49 1003.61 1003.77 1003.93 1004.13 1004.37 1004.61 1004.81 1005.05 1005.21 1005.45 1005.65 1005.81 1006.01 1006.21 1006.57 1006.93 1007.29 1007.57 1007.81 1008.05 1008.25 1008.45 1008.65 1008.85 1009.05 1009.29 1009.49 1009.77 1010.05 1010.29 1010.49 1010.69 1010.89 1011.13 1011.41 1011.65 1011.93 1012.09 1012.37 1012.65 1012.93 1013.21 1013.49 1013.65 1013.77 1013.81 1013.81 1013.93 1014.17 1014.45 1014.73
1002.01 1002.09 1002.21 1002.21 1002.37 1002.49 1002.53 1002.49 1002.53 1002.61 1002.65 1002.69 1002.77 1002.93 1003.13 1003.21 1003.37 1003.49 1003.65 1003.89 1004.09 1004.25 1004.49 1004.77 1005.01 1005.21 1005.37 1005.57 1005.77 1005.97 1006.17 1006.45 1006.85 1007.21 1007.49 1007.73 1007.93 1008.17 1008.37 1008.61 1008.81 1008.97 1009.21 1009.41 1009.65 1009.89 1010.09 1010.29 1010.53 1010.77 1011.01 1011.29 1011.53 1011.77 1012.01 1012.25 1012.49 1012.77 1013.05 1013.33 1013.53 1013.69 1013.77 1013.89 1013.93 1014.09 1014.29 1014.53 1014.77
1002.05 1002.09 1002.17 1002.17 1002.37 1002.53 1002.61 1002.53 1002.57 1002.61 1002.65 1002.73 1002.81 1003.01 1003.21 1003.25 1003.37 1003.49 1003.73 1004.01 1004.25 1004.45 1004.65 1004.93 1005.13 1005.37 1005.57 1005.73 1005.93 1006.13 1006.41 1006.77 1007.09 1007.37 1007.61 1007.85 1008.09 1008.29 1008.49 1008.73 1008.89 1009.09 1009.33 1009.53 1009.77 1009.97 1010.17 1010.37 1010.61 1010.85 1011.09 1011.37 1011.65 1011.89 1012.17 1012.41 1012.69 1012.97 1013.21 1013.41 1013.61 1013.77 1013.89 1014.01 1014.17 1014.33 1014.49 1014.65 1014.81
1002.09 1002.17 1002.21 1002.29 1002.41 1002.49 1002.49 1002.49 1002.49 1002.53 1002.65 1002.77 1002.93 1003.09 1003.21 1003.33 1003.45 1003.65 1003.93 1004.17 1004.37 1004.61 1004.85 1005.05 1005.25 1005.45 1005.65 1005.89 1006.09 1006.37 1006.65 1006.97 1007.25 1007.49 1007.73 1007.97 1008.21 1008.41 1008.61 1008.77 1008.93 1009.21 1009.45 1009.65 1009.85 1010.09 1010.33 1010.53 1010.77 1010.97 1011.21 1011.45 1011.73 1011.97 1012.25 1012.53 1012.85 1013.13 1013.37 1013.49 1013.69 1013.85 1014.05 1014.21 1014.41 1014.61 1014.77 1014.85 1015.01
1002.37 1002.41 1002.41 1002.41 1002.49 1002.57 1002.53 1002.45 1002.45 1002.49 1002.65 1002.89 1003.05 1003.21 1003.33 1003.49 1003.65 1003.89 1004.09 1004.37 1004.53 1004.77 1005.01 1005.21 1005.41 1005.61 1005.77 1006.01 1006.21 1006.49 1006.81 1007.13 1007.41 1007.65 1007.85 1008.09 1008.29 1008.49 1008.69 1008.89 1009.05 1009.25 1009.49 1009.81 1010.05 1010.29 1010.53 1010.73 1010.93 1011.09 1011.33 1011.53 1011.77 1012.09 1012.37 1012.65 1012.93 1013.21 1013.45 1013.61 1013.77 1014.05 1014.29 1014.49 1014.73 1014.89 1015.05 1015.13 1015.29
1002.69 1002.73 1002.69 1002.65 1002.65 1002.65 1002.53 1002.45 1002.49 1002.61 1002.77 1002.97 1003.17 1003.33 1003.49 1003.69 1003.89 1004.09 1004.33 1004.49 1004.73 1004.93 1005.17 1005.41 1005.61 1005.77 1005.97 1006.21 1006.37 1006.65 1006.93 1007.25 1007.57 1007.81 1008.05 1008.21 1008.37 1008.61 1008.77 1009.01 1009.21 1009.45 1009.69 1009.97 1010.25 1010.49 1010.69 1010.89 1011.05 1011.21 1011.41 1011.65 1011.93 1012.21 1012.49 1012.77 1013.05 1013.29 1013.49 1013.69 1013.93 1014.29 1014.61 1014.81 1015.01 1015.13 1015.29 1015.41 1015.57
1002.81 1002.85 1002.85 1002.81 1002.73 1002.57 1002.49 1002.45 1002.57 1002.77 1002.93 1003.13 1003.29 1003.49 1003.65 1003.85 1004.09 1004.25 1004.45 1004.65 1004.89 1005.09 1005.37 1005.61 1005.81 1006.05 1006.21 1006.41 1006.61 1006.77 1007.05 1007.37 1007.65 1007.93 1008.17 1008.37 1008.53 1008.77 1008.97 1009.21 1009.45 1009.69 1009.93 1010.21 1010.45 1010.65 1010.81 1010.97 1011.17 1011.37 1011.49 1011.77 1012.01 1012.33 1012.65 1012.97 1013.21 1013.45 1013.61 1013.81 1014.17 1014.53 1014.85 1015.05 1015.21 1015.33 1015.49 1015.65 1015.77
1002.77 1002.85 1002.81 1002.73 1002.65 1002.49 1002.49 1002.57 1002.77 1002.93 1003.09 1003.29 1003.49 1003.65 1003.85 1004.05 1004.21 1004.41 1004.65 1004.89 1005.09 1005.33 1005.57 1005.77 1006.01 1006.21 1006.41 1006.61 1006.81 1007.01 1007.21 1007.49 1007.77 1008.05 1008.33 1008.53 1008.77 1009.01 1009.21 1009.49 1009.73 1009.93 1010.21 1010.45 1010.65 1010.81 1010.93 1011.05 1011.17 1011.37 1011.61 1011.85 1012.13 1012.49 1012.81 1013.21 1013.45 1013.57 1013.73 1013.93 1014.29 1014.65 1014.97 1015.21 1015.37 1015.53 1015.65 1015.77 1015.89
1002.65 1002.65 1002.65 1002.61 1002.53 1002.53 1002.65 1002.77 1002.93 1003.09 1003.29 1003.49 1003.65 1003.85 1004.01 1004.21 1004.37 1004.61 1004.81 1005.05 1005.33 1005.53 1005.77 1005.93 1006.17 1006.37 1006.57 1006.77 1007.01 1007.25 1007.49 1007.73 1007.93 1008.21 1008.49 1008.77 1009.01 1009.25 1009.49 1009.77 1009.97 1010.21 1010.41 1010.69 1010.89 1011.01 1011.05 1011.17 1011.21 1011.37 1011.65 1011.93 1012.25 1012.65 1013.05 1013.41 1013.57 1013.69 1013.89 1014.09 1014.37 1014.65 1015.01 1015.29 1015.53 1015.69 1015.85 1015.93 1016.09
1002.49 1002.49 1002.49 1002.53 1002.57 1002.65 1002.81 1002.97 1003.09 1003.25 1003.49 1003.65 1003.85 1004.05 1004.21 1004.41 1004.57 1004.77 1005.05 1005.29 1005.49 1005.77 1005.97 1006.17 1006.37 1006.57 1006.77 1006.97 1007.21 1007.49 1007.77 1008.01 1008.21 1008.49 1008.73 1008.97 1009.25 1009.49 1009.73 1009.93 1010.09 1010.37 1010.65 1010.93 1011.05 1011.09 1011.21 1011.25 1011.37 1011.49 1011.73 1012.05 1012.37 1012.77 1013.21 1013.49 1013.65 1013.85 1014.09 1014.33 1014.53 1014.77 1015.05 1015.37 1015.61 1015.85 1016.09 1016.21 1016.33
1002.41 1002.45 1002.53 1002.65 1002.73 1002.85 1002.97 1003.13 1003.29 1003.49 1003.69 1003.89 1004.09 1004.21 1004.41 1004.65 1004.81 1005.05 1005.25 1005.49 1005.73 1005.93 1006.17 1006.41 1006.61 1006.77 1006.97 1007.25 1007.49 1007.77 1008.01 1008.29 1008.53 1008.77 1009.01 1009.25 1009.49 1009.69 1009.89 1010.05 1010.25 1010.53 1010.85 1011.05 1011.21 1011.25 1011.33 1011.41 1011.53 1011.73 1011.93 1012.25 1012.65 1013.01 1013.29 1013.49 1013.69 1014.01 1014.33 1014.57 1014.77 1015.01 1015.21 1015.49 1015.73 1015.97 1016.21 1016.45 1016.57
1002.53 1002.65 1002.69 1002.77 1002.93 1003.05 1003.21 1003.37 1003.53 1003.73 1003.93 1004.09 1004.25 1004.45 1004.65 1004.85 1005.05 1005.29 1005.53 1005.77 1005.93 1006.17 1006.41 1006.65 1006.85 1007.05 1007.33 1007.61 1007.85 1008.09 1008.37 1008.57 1008.81 1009.05 1009.29 1009.49 1009.69 1009.89 1010.09 1010.21 1010.45 1010.77 1011.05 1011.21 1011.33 1011.41 1011.49 1011.65 1011.81 1012.01 1012.25 1012.49 1012.85 1013.21 1013.41 1013.57 1013.85 1014.17 1014.49 1014.73 1014.97 1015.21 1015.45 1015.65 1015.93 1016.17 1016.37 1016.57 1016.73
1002.73 1002.77 1002.89 1002.97 1003.13 1003.29 1003.45 1003.61 1003.77 1003.93 1004.13 1004.33 1004.49 1004.69 1004.93 1005.13 1005.37 1005.57 1005.81 1006.01 1006.21 1006.49 1006.65 1006.85 1007.13 1007.41 1007.65 1007.89 1008.17 1008.41 1008.65 1008.89 1009.09 1009.29 1009.49 1009.69 1009.93 1010.09 1010.25 1010.37 1010.65 1010.93 1011.21 1011.37 1011.49 1011.61 1011.77 1011.93 1012.09 1012.29 1012.53 1012.77 1013.05 1013.33 1013.57 1013.77 1014.05 1014.37 1014.65 1014.93 1015.21 1015.41 1015.65 1015.85 1016.13 1016.37 1016.53 1016.65 1016.77
1002.89 1002.97 1003.05 1003.21 1003.37 1003.49 1003.69 1003.89 1004.09 1004.21 1004.41 1004.61 1004.77 1004.97 1005.17 1005.41 1005.65 1005.85 1006.09 1006.29 1006.49 1006.77 1006.97 1007.17 1007.41 1007.69 1007.93 1008.21 1008.45 1008.69 1008.93 1009.21 1009.41 1009.65 1009.81 1009.97 1010.13 1010.29 1010.41 1010.57 1010.81 1011.09 1011.37 1011.53 1011.69 1011.85 1012.01 1012.21 1012.37 1012.53 1012.77 1013.05 1013.29 1013.53 1013.77 1014.05 1014.29 1014.57 1014.89 1015.21 1015.41 1015.65 1015.89 1016.13 1016.37 1016.53 1016.69 1016.77 1016.85
1003.13 1003.21 1003.33 1003.45 1003.65 1003.81 1003.97 1004.17 1004.37 1004.53 1004.69 1004.89 1005.05 1005.29 1005.49 1005.69 1005.93 1006.17 1006.37 1006.57 1006.81 1007.05 1007.21 1007.41 1007.65 1007.97 1008.25 1008.49 1008.77 1009.01 1009.21 1009.45 1009.73 1009.93 1010.13 1010.21 1010.37 1010.45 1010.53 1010.77 1011.05 1011.37 1011.61 1011.77 1011.89 1012.09 1012.25 1012.45 1012.65 1012.85 1013.05 1013.29 1013.53 1013.77 1014.01 1014.29 1014.57 1014.85 1015.13 1015.37 1015.65 1015.93 1016.21 1016.37 1016.61 1016.77 1016.85 1016.93 1017.01
1003.41 1003.49 1003.65 1003.77 1003.93 1004.13 1004.33 1004.49 1004.65 1004.81 1005.01 1005.21 1005.41 1005.61 1005.77 1006.05 1006.25 1006.49 1006.69 1006.89 1007.05 1007.29 1007.49 1007.73 1008.01 1008.29 1008.53 1008.77 1009.05 1009.29 1009.53 1009.77 1010.05 1010.29 1010.45 1010.49 1010.53 1010.57 1010.77 1011.05 1011.37 1011.65 1011.85 1011.97 1012.17 1012.33 1012.53 1012.77 1013.01 1013.21 1013.41 1013.57 1013.77 1014.01 1014.25 1014.53 1014.85 1015.17 1015.45 1015.73 1016.05 1016.29 1016.49 1016.65 1016.77 1016.85 1016.97 1017.09 1017.21
1003.73 1003.85 1003.97 1004.13 1004.29 1004.45 1004.65 1004.77 1004.93 1005.09 1005.29 1005.49 1005.73 1005.93 1006.09 1006.33 1006.53 1006.77 1006.97 1007.21 1007.37 1007.57 1007.81 1008.09 1008.29 1008.57 1008.81 1009.05 1009.29 1009.53 1009.81 1010.09 1010.37 1010.57 1010.65 1010.69 1010.69 1010.77 1011.01 1011.37 1011.73 1011.97 1012.13 1012.25 1012.41 1012.65 1012.89 1013.09 1013.37 1013.53 1013.69 1013.81 1014.01 1014.25 1014.53 1014.81 1015.09 1015.41 1015.73 1016.09 1016.37 1016.53 1016.69 1016.77 1016.89 1017.01 1017.17 1017.29 1017.49
1004.09 1004.21 1004.37 1004.49 1004.65 1004.81 1004.93 1005.13 1005.29 1005.45 1005.65 1005.85 1006.09 1006.29 1006.49 1006.65 1006.85 1007.05 1007.29 1007.49 1007.65 1007.93 1008.21 1008.45 1008.65 1008.89 1009.13 1009.37 1009.61 1009.85 1010.09 1010.37 1010.61 1010.77 1010.85 1010.89 1010.93 1011.09 1011.37 1011.77 1012.09 1012.33 1012.45 1012.57 1012.73 1012.93 1013.17 1013.41 1013.57 1013.69 1013.81 1014.01 1014.29 1014.53 1014.77 1015.01 1015.33 1015.65 1015.97 1016.21 1016.49 1016.69 1016.81 1016.93 1017.05 1017.21 1017.37 1017.49 1017.65
1004.41 1004.53 1004.69 1004.85 1005.01 1005.17 1005.33 1005.45 1005.61 1005.77 1005.97 1006.21 1006.41 1006.65 1006.85 1007.05 1007.25 1007.45 1007.61 1007.77 1007.97 1008.21 1008.49 1008.77 1008.97 1009.21 1009.49 1009.77 1010.01 1010.21 1010.45 1010.65 1010.81 1010.97 1011.05 1011.13 1011.21 1011.49 1011.85 1012.21 1012.49 1012.65 1012.77 1012.89 1013.05 1013.21 1013.37 1013.53 1013.65 1013.77 1013.93 1014.21 1014.49 1014.73 1014.93 1015.17 1015.49 1015.85 1016.09 1016.37 1016.65 1016.81 1016.97 1017.13 1017.33 1017.45 1017.57 1017.69 1017.77
1004.77 1004.89 1005.05 1005.21 1005.37 1005.53 1005.69 1005.81 1005.97 1006.17 1006.37 1006.57 1006.77 1006.97 1007.21 1007.41 1007.61 1007.77 1007.93 1008.05 1008.25 1008.53 1008.81 1009.05 1009.29 1009.57 1009.85 1010.09 1010.37 1010.61 1010.77 1010.93 1011.05 1011.21 1011.33 1011.45 1011.65 1011.93 1012.29 1012.65 1012.89 1013.05 1013.17 1013.25 1013.37 1013.45 1013.61 1013.73 1013.81 1013.93 1014.09 1014.37 1014.65 1014.93 1015.13 1015.37 1015.69 1016.01 1016.25 1016.49 1016.81 1017.05 1017.21 1017.41 1017.53 1017.65 1017.77 1017.89 1017.97
1005.21 1005.29 1005.41 1005.53 1005.73 1005.93 1006.09 1006.21 1006.37 1006.57 1006.77 1006.97 1007.17 1007.37 1007.53 1007.73 1007.93 1008.13 1008.25 1008.37 1008.57 1008.85 1009.17 1009.41 1009.69 1009.97 1010.21 1010.45 1010.65 1010.93 1011.13 1011.29 1011.37 1011.49 1011.61 1011.81 1012.05 1012.33 1012.65 1012.93 1013.13 1013.37 1013.49 1013.53 1013.61 1013.65 1013.77 1013.97 1014.09 1014.21 1014.33 1014.53 1014.77 1015.01 1015.25 1015.53 1015.81 1016.13 1016.45 1016.77 1017.05 1017.29 1017.49 1017.61 1017.77 1017.89 1018.01 1018.09 1018.13
1005.65 1005.69 1005.77 1005.93 1006.09 1006.25 1006.41 1006.57 1006.77 1006.97 1007.17 1007.37 1007.53 1007.73 1007.93 1008.09 1008.33 1008.53 1008.69 1008.77 1008.93 1009.21 1009.49 1009.77 1010.09 1010.37 1010.57 1010.73 1010.93 1011.17 1011.41 1011.61 1011.69 1011.77 1011.93 1012.17 1012.45 1012.65 1012.85 1013.05 1013.33 1013.53 1013.69 1013.77 1013.81 1013.93 1014.05 1014.21 1014.37 1014.49 1014.53 1014.65 1014.89 1015.09 1015.33 1015.61 1015.93 1016.29 1016.65 1016.93 1017.21 1017.49 1017.65 1017.77 1017.93 1018.09 1018.17 1018.21 1018.25
1006.09 1006.13 1006.21 1006.29 1006.45 1006.65 1006.81 1007.01 1007.21 1007.37 1007.53 1007.69 1007.93 1008.13 1008.33 1008.53 1008.77 1008.93 1009.05 1009.17 1009.37 1009.61 1009.85 1010.17 1010.45 1010.69 1010.89 1011.01 1011.21 1011.45 1011.69 1011.89 1012.05 1012.13 1012.29 1012.49 1012.77 1012.97 1013.09 1013.25 1013.49 1013.77 1013.93 1014.01 1014.09 1014.21 1014.33 1014.49 1014.57 1014.65 1014.69 1014.85 1015.01 1015.21 1015.45 1015.73 1016.09 1016.45 1016.81 1017.09 1017.37 1017.61 1017.81 1017.97 1018.09 1018.21 1018.29 1018.37 1018.37
1006.49 1006.57 1006.65 1006.77 1006.89 1007.05 1007.21 1007.45 1007.65 1007.81 1007.97 1008.13 1008.33 1008.53 1008.73 1008.93 1009.05 1009.25 1009.45 1009.65 1009.89 1010.09 1010.33 1010.57 1010.77 1011.01 1011.21 1011.41 1011.61 1011.77 1012.01 1012.21 1012.37 1012.57 1012.73 1012.93 1013.13 1013.33 1013.45 1013.61 1013.81 1014.05 1014.21 1014.33 1014.41 1014.49 1014.57 1014.65 1014.69 1014.77 1014.81 1014.97 1015.17 1015.37 1015.61 1015.85 1016.21 1016.61 1016.97 1017.25 1017.49 1017.69 1017.93 1018.09 1018.21 1018.29 1018.37 1018.41 1018.45
Wind_Speed
9 9 8 8 8 6 6 5 6 6 6 5 5 5 5 5 5 5 4 4 4 4 4 4 4 4 6 8 8 9 9 10 11 11 11 11 12 12 13 12 12 12 12 12 12 12 11 11 9 8 7 7 7 7 6 5 7 8 8 8 8 9 10 11 10 10 9 8 6
10 9 9 9 7 6 5 6 6 6 6 5 5 5 5 5 5 5 5 4 4 4 4 4 4 5 7 9 9 9 10 11 12 12 12 12 12 13 13 12 12 12 12 13 12 11 10 10 9 8 6 6 6 6 5 5 6 7 8 9 8 7 8 8 9 9 9 8 6
9 9 8 8 7 6 6 6 7 7 6 5 5 5 5 5 5 5 5 4 4 4 4 3 4 5 8 9 9 9 10 12 12 12 11 11 12 13 13 12 12 12 12 12 11 10 9 10 8 7 7 6 6 6 5 5 5 6 7 9 7 6 6 6 7 7 7 6 6
9 9 8 8 8 7 7 7 7 7 6 5 5 5 5 5 4 4 4 4 4 4 4 3 4 5 7 9 9 10 11 12 13 13 12 12 12 13 13 12 12 12 12 11 11 11 10 9 7 6 6 7 7 6 5 5 6 5 5 6 6 6 6 6 6 5 5 5 5
9 9 8 7 8 8 7 7 8 7 6 5 5 5 5 4 4 4 4 4 4 4 4 4 4 5 7 9 10 11 12 13 13 13 12 12 12 12 12 12 12 11 11 11 11 11 10 9 7 6 6 7 6 5 6 6 6 6 5 4 4 5 5 6 5 4 4 4 4
9 9 8 7 7 7 7 8 8 7 6 5 5 5 5 4 4 4 4 4 4 4 4 5 5 6 8 11 11 12 12 13 12 12 12 13 12 12 12 12 12 11 10 10 11 11 10 9 7 6 6 6 6 6 7 7 7 6 5 5 4 4 5 6 5 4 4 4 4
9 9 8 7 8 8 8 8 8 7 6 5 6 7 6 5 5 5 5 5 4 4 4 5 6 7 9 12 12 12 12 12 12 12 13 12 12 12 12 12 11 11 11 11 11 11 10 9 7 6 6 6 6 7 7 7 6 6 6 6 4 4 5 6 5 4 5 5 6
8 8 8 8 8 9 9 9 7 6 6 5 6 7 7 7 6 6 6 5 4 4 5 5 6 9 11 14 13 12 12 12 12 12 12 12 13 12 12 12 11 11 11 11 11 10 9 8 7 7 7 6 6 7 7 8 8 7 7 6 5 4 4 5 5 5 5 6 6
7 8 8 8 8 9 9 8 8 7 6 6 7 7 7 7 7 6 6 5 5 5 5 5 7 10 13 15 14 13 12 13 13 12 12 12 13 13 12 11 11 11 11 10 10 11 10 8 7 6 6 6 6 7 8 9 9 9 8 7 6 5 5 5 5 5 5 6 7
7 8 8 8 8 8 8 8 8 7 7 7 7 7 7 7 7 6 5 4 5 6 5 5 8 11 15 16 15 14 13 12 12 13 13 13 13 13 12 11 11 11 10 10 10 10 10 8 7 7 7 7 8 9 9 10 10 9 8 6 6 7 7 6 6 6 6 6 7
8 8 8 7 8 8 8 7 7 7 7 6 7 7 6 6 6 5 4 4 5 6 7 7 10 12 14 15 14 14 13 12 12 12 13 13 13 13 12 12 12 11 11 10 9 9 8 8 9 9 9 9 9 9 10 10 10 10 9 7 8 8 8 7 7 6 6 6 7
9 8 8 8 8 8 7 7 6 6 6 6 6 6 6 5 5 5 5 6 7 7 8 9 11 12 13 13 13 13 13 12 13 13 13 13 13 12 12 12 12 12 11 11 9 8 8 9 10 11 11 10 9 9 9 11 11 10 10 9 8 8 8 8 8 6 6 6 8
9 9 8 8 8 8 7 7 6 5 5 6 6 6 6 5 5 5 6 8 8 8 8 9 11 12 12 12 12 12 12 12 13 13 12 13 12 12 12 11 11 11 11 10 9 8 8 9 11 12 12 11 9 9 10 11 11 11 10 10 9 8 8 8 8 7 7 8 8
8 8 8 8 8 8 7 6 5 5 6 7 7 6 5 4 5 5 7 9 10 9 8 9 9 10 11 12 12 12 12 12 13 13 13 12 12 12 12 11 11 11 10 9 9 9 10 10 11 12 12 11 10 10 10 10 10 10 10 10 9 8 8 7 8 8 9 9 9
8 7 7 7 8 7 7 7 6 6 6 7 7 6 5 4 5 6 8 10 10 10 9 8 8 9 11 12 13 13 13 13 13 13 13 13 12 12 11 11 11 10 10 9 9 9 10 11 11 11 11 12 12 11 10 10 9 9 9 9 9 8 7 7 7 8 10 10 9
8 7 6 6 6 7 7 7 6 6 6 6 6 5 5 5 6 8 9 11 10 9 8 9 9 9 11 12 13 13 13 13 13 14 13 13 12 12 11 11 11 11 10 10 10 10 10 10 10 11 11 12 12 11 10 10 9 9 9 8 8 7 7 6 7 8 9 10 9
7 7 6 5 4 5 6 6 6 6 5 5 6 6 5 5 6 8 10 11 10 9 9 10 9 10 10 11 12 12 12 13 13 12 12 12 12 12 11 11 11 11 11 11 11 11 11 10 10 10 11 11 11 10 10 9 9 9 9 8 8 7 6 6 7 8 9 10 9
5 5 5 4 4 3 3 5 6 6 6 6 6 6 6 6 8 9 11 11 11 11 11 11 10 10 11 11 11 11 11 12 12 12 11 12 12 12 11 11 11 11 11 12 12 12 12 11 11 11 11 10 10 10 9 9 9 9 9 8 7 6 6 5 6 8 8 9 9
3 3 4 4 3 2 2 5 6 6 7 6 6 6 7 8 9 10 11 12 12 12 12 12 11 11 11 11 11 11 11 11 12 12 12 12 12 12 11 11 11 11 12 12 12 12 12 12 12 11 11 10 10 10 9 9 9 9 8 8 7 6 6 6 6 7 7 8 8
4 3 3 3 3 2 1 5 6 7 8 7 7 8 9 10 11 12 12 12 12 13 13 12 12 12 12 12 12 11 11 10 11 12 12 12 12 12 12 12 12 12 12 12 12 12 12 12 12 12 11 11 11 11 10 10 9 9 8 7 7 7 7 7 7 7 7 7 8
5 5 4 4 4 3 2 5 7 9 9 9 9 10 10 11 12 13 13 13 13 13 13 13 13 13 13 13 13 12 11 10 11 12 12 12 12 12 12 12 12 12 12 11 11 12 12 12 12 12 12 12 12 11 11 10 9 9 8 7 8 8 8 7 7 7 7 7 7
5 4 4 4 5 4 3 6 8 10 11 11 11 11 12 13 13 13 13 13 13 13 13 13 13 14 14 13 13 13 12 11 11 11 11 11 11 11 11 11 12 12 12 12 12 12 12 12 12 12 12 12 12 11 11 10 10 9 9 9 9 9 9 8 7 7 7 7 7
2 3 4 5 6 4 5 9 10 12 12 12 12 12 13 13 14 14 14 13 13 14 13 13 13 13 14 14 14 14 13 12 12 11 11 11 11 11 11 11 12 12 11 11 11 11 11 11 11 11 11 11 12 12 11 10 10 9 10 10 10 10 9 8 8 8 8 8 8
4 4 5 6 6 6 9 11 12 12 13 13 13 13 14 14 14 14 14 14 14 14 13 12 12 13 14 14 14 14 14 14 13 12 12 12 12 12 11 11 10 10 10 9 9 10 10 9 10 10 10 11 11 11 10 10 9 9 10 11 11 10 9 8 8 8 8 8 7
7 8 8 7 8 10 11 12 13 13 13 13 14 14 14 14 14 14 14 15 14 14 14 13 13 13 13 13 14 14 14 14 14 14 13 13 12 12 11 10 9 9 8 9 12 13 12 11 10 9 9 10 10 10 10 9 9 9 10 11 11 10 10 9 9 8 8 7 7
8 8 9 10 11 12 12 13 13 14 14 14 14 14 14 14 14 14 15 15 15 14 14 14 13 13 12 13 13 13 13 13 13 14 14 13 13 12 10 9 8 8 9 11 15 16 15 15 13 12 10 10 10 10 9 8 8 9 10 10 10 10 10 10 9 8 8 7 7
9 9 10 11 12 12 13 13 14 14 14 14 14 14 14 13 13 14 15 15 15 14 14 13 13 12 12 12 13 13 13 12 13 13 14 13 13 12 11 9 8 8 10 14 16 17 17 17 16 15 13 10 10 9 9 8 9 9 9 9 9 10 10 10 10 9 9 8 8
11 11 11 12 12 13 13 13 14 14 14 14 14 14 14 14 15 15 15 15 14 13 12 11 11 10 10 11 12 13 13 13 12 12 12 12 12 11 10 9 9 10 12 16 17 18 18 18 18 17 15 12 10 9 9 9 9 9 9 8 9 9 10 10 9 9 9 8 8
11 11 12 12 13 13 13 13 14 14 14 14 14 14 15 15 15 15 15 14 14 12 11 10 9 9 10 11 12 13 13 13 12 11 11 12 12 11 11 11 11 13 15 17 17 18 18 18 18 18 16 14 9 7 7 8 8 8 8 7 7 8 8 9 8 8 8 8 8
11 12 12 13 13 13 13 13 14 14 14 13 14 15 15 15 15 15 14 14 13 12 11 10 10 11 12 13 13 12 12 12 11 11 12 12 12 12 12 12 12 13 15 17 18 18 18 18 18 18 17 15 11 8 7 7 8 8 7 7 8 8 9 9 8 8 7 7 8
11 12 13 13 13 14 14 14 14 14 14 13 14 15 15 15 14 14 14 14 13 13 13 13 14 14 14 13 13 12 12 11 11 11 11 12 12 13 13 13 13 14 15 18 18 19 19 19 19 18 17 15 11 9 8 8 8 8 8 8 9 9 9 8 8 7 7 8 8
12 12 13 14 14 14 14 14 14 14 14 15 15 15 15 15 14 14 14 14 14 15 15 16 16 16 15 14 13 13 13 12 12 11 11 11 12 13 14 14 13 14 16 19 19 19 19 19 19 19 18 16 13 11 10 10 10 9 9 10 10 9 8 7 7 8 8 9 9
12 13 13 14 14 14 14 14 14 14 15 15 15 15 15 15 14 14 14 14 14 15 16 16 16 15 15 14 14 14 14 13 13 12 12 12 13 14 14 14 13 14 17 20 20 20 20 20 20 20 18 17 13 12 12 11 10 10 10 11 10 10 10 9 9 9 10 10 10
13 14 14 14 14 14 14 14 14 15 15 15 15 15 15 15 15 14 14 13 13 14 14 14 14 14 14 14 14 14 14 13 13 12 12 12 14 14 14 12 11 13 17 20 21 21 21 20 20 20 19 17 13 12 12 12 11 11 11 11 11 10 10 11 11 11 11 11 10
14 14 14 14 14 14 14 14 14 15 15 15 15 15 15 15 15 14 14 14 14 14 13 13 13 13 13 14 14 14 14 14 13 13 13 13 14 15 15 12 12 14 18 20 20 20 20 20 20 20 18 15 12 11 12 13 13 13 13 13 12 12 12 11 11 10 10 10 10
14 15 15 15 15 15 15 15 15 15 15 15 15 15 15 15 14 14 14 15 15 15 14 14 14 14 14 14 13 13 14 14 13 13 13 14 15 15 15 13 12 14 17 19 19 19 19 19 20 19 17 13 10 10 11 12 12 13 13 13 13 12 12 11 10 9 9 8 8
14 15 15 15 15 15 15 15 15 15 15 15 15 15 15 15 14 14 14 15 15 15 15 14 14 14 14 14 13 13 12 13 13 13 14 14 15 15 14 12 12 13 15 17 18 18 18 18 18 17 15 12 10 10 10 10 10 11 12 13 12 11 10 9 8 8 8 7 8
14 15 15 15 15 15 15 15 16 16 16 15 15 15 14 14 14 13 13 14 15 15 15 15 14 14 14 13 13 13 13 12 13 13 14 14 14 14 13 12 11 11 13 15 17 17 17 17 17 15 13 11 10 10 9 9 10 10 11 11 10 9 9 7 7 7 7 8 9
14 14 15 16 16 16 16 16 16 16 15 15 15 14 14 13 13 12 13 13 14 15 15 15 14 14 13 13 13 13 13 13 13 13 14 14 13 13 13 12 11 11 12 15 16 17 17 16 16 15 14 11 10 9 9 9 10 11 10 9 9 8 8 7 6 6 7 9 11
14 15 15 16 16 16 16 16 16 15 15 15 15 15 14 14 13 13 13 13 14 15 15 15 14 14 13 13 13 13 13 13 13 13 14 14 14 14 14 13 12 12 13 14 16 16 16 16 16 15 14 11 9 9 9 9 10 11 10 9 8 7 7 6 5 5 6 7 9
14 15 16 16 16 16 17 17 16 15 15 15 15 14 14 14 14 13 13 13 14 13 13 13 14 14 14 13 12 13 13 14 13 14 14 14 14 14 13 12 12 11 12 13 15 16 16 17 17 16 14 11 9 8 8 9 10 10 10 8 8 7 6 6 5 5 5 5 5
Wind_Direction
201 204 208 212 211 204 191 179 179 182 184 181 173 171 170 170 174 175 175 174 175 176 177 179 181 181 179 178 176 169 160 153 153 152 151 148 145 144 144 146 148 148 148 147 146 145 144 144 142 143 144 148 148 147 145 144 147 150 150 147 148 153 157 158 156 155 154 157 159
199 204 209 214 210 199 183 174 177 181 184 181 173 169 169 169 172 172 173 176 177 178 178 182 188 184 178 175 169 161 153 149 149 148 145 143 142 142 143 144 147 148 149 148 147 145 144 144 142 141 141 142 141 139 137 136 142 145 145 143 143 147 152 153 152 152 152 153 154
196 203 209 214 206 192 178 172 175 178 180 177 170 168 167 168 170 171 172 176 176 176 179 185 195 186 176 168 162 154 149 146 145 143 141 140 141 141 142 143 146 148 148 147 147 145 143 142 141 140 139 138 138 136 133 131 138 142 142 141 140 142 146 146 145 146 148 150 152
193 201 208 213 201 188 174 168 171 174 176 172 166 165 166 168 168 169 169 170 173 177 183 190 198 187 174 162 153 147 143 142 141 139 138 138 139 140 140 142 145 146 147 146 144 141 140 139 137 134 133 133 132 131 130 133 136 136 136 136 135 139 141 139 138 139 142 142 144
192 200 207 210 194 181 170 164 168 171 172 168 166 166 167 166 165 164 164 167 175 182 191 198 198 186 170 156 145 140 139 139 138 138 137 137 138 138 139 141 144 144 144 142 140 138 136 133 129 126 126 127 126 126 127 130 129 126 123 123 128 133 135 133 133 131 129 126 122
191 199 204 204 186 175 167 163 165 167 167 167 165 166 167 167 166 164 165 169 178 187 195 205 201 182 164 148 139 136 137 137 138 138 138 138 136 136 137 139 142 142 140 138 136 134 132 129 125 122 122 121 118 119 122 126 124 120 117 116 122 127 129 130 130 126 119 115 111
190 196 199 193 179 171 166 163 163 163 163 164 165 166 167 164 161 160 162 167 177 189 199 207 198 177 158 143 137 135 136 136 137 138 138 137 135 135 136 138 140 140 138 136 134 132 130 127 124 123 122 121 119 121 124 126 124 121 118 118 122 126 129 130 127 124 122 122 118
188 192 191 182 175 168 163 160 158 159 162 166 168 167 164 159 158 159 163 169 179 191 200 204 188 168 152 139 137 136 135 135 136 138 138 136 135 134 135 138 139 139 137 135 134 132 130 126 124 124 125 124 123 125 126 126 123 121 120 120 122 127 131 130 126 126 128 129 123
184 185 182 175 171 165 160 155 155 158 163 169 169 165 160 156 158 163 168 176 182 188 192 190 174 157 144 136 136 137 137 137 138 138 138 137 136 136 137 139 139 138 136 134 132 131 128 124 123 122 124 124 125 127 127 125 123 121 121 122 125 127 126 124 124 128 131 131 123
177 176 173 169 165 159 154 150 153 157 161 167 167 163 159 159 164 169 174 178 179 178 175 171 161 147 139 136 138 139 140 139 139 139 138 138 138 138 140 142 141 139 136 134 131 129 126 123 121 121 120 120 123 125 126 126 124 124 124 125 129 129 127 123 124 129 132 129 120
169 167 164 160 157 153 149 147 151 154 158 162 164 164 165 169 169 168 168 173 169 163 159 160 151 142 137 137 139 140 141 140 140 139 139 139 139 140 141 142 141 139 137 135 132 129 126 123 122 121 121 120 121 123 125 126 126 125 126 127 131 133 131 127 129 131 131 126 115
160 158 156 153 152 149 145 144 147 150 154 160 167 172 175 178 164 156 158 169 156 150 149 152 145 139 136 137 138 139 139 139 139 138 138 137 137 138 139 140 138 137 135 134 133 130 126 125 125 124 123 122 123 125 127 128 128 128 128 130 134 136 135 132 134 134 130 122 111
151 150 151 150 147 143 139 139 144 151 159 169 177 181 180 173 152 152 161 164 148 141 142 145 141 137 135 136 136 137 137 138 138 137 136 135 135 135 136 136 135 133 132 131 129 127 125 126 126 126 125 125 126 128 130 131 131 131 132 134 138 138 136 136 137 133 124 114 107
137 139 143 144 142 139 138 142 149 162 175 183 185 182 173 158 150 159 164 155 140 135 135 137 135 133 132 133 133 134 134 135 134 133 132 131 132 133 133 133 131 130 128 125 123 123 124 126 127 126 126 126 127 129 131 132 133 134 136 138 139 138 137 139 138 130 120 111 106
120 124 129 135 139 143 148 155 164 175 185 190 186 175 161 151 159 165 160 144 135 132 131 130 127 125 125 127 129 130 131 131 131 130 128 128 130 131 131 130 129 126 123 119 118 119 121 124 125 126 126 127 128 130 131 132 133 133 135 136 134 134 136 140 136 126 118 113 111
116 117 119 124 137 148 159 168 174 182 187 188 177 164 153 151 159 158 151 138 133 129 127 124 121 119 120 122 124 126 128 128 127 126 126 127 129 130 130 129 127 124 121 117 116 116 118 120 123 125 126 127 128 129 130 130 129 128 127 127 126 129 135 141 131 122 117 117 117
121 120 118 116 124 142 160 173 177 180 180 176 164 154 148 150 152 147 141 135 131 127 123 119 117 118 119 121 123 124 124 124 123 124 125 128 130 130 129 127 125 123 121 119 117 117 117 118 120 122 123 124 125 126 126 125 122 120 119 118 121 128 135 137 125 119 117 118 121
116 112 109 103 96 111 148 172 173 170 166 165 157 149 144 147 144 139 133 130 128 125 121 118 118 118 120 121 122 121 120 119 121 123 126 128 128 127 126 124 123 122 120 119 119 119 120 120 120 120 121 121 121 121 120 117 115 114 115 117 121 125 127 124 118 116 117 121 124
81 77 78 79 70 75 135 170 166 162 159 160 148 139 138 143 137 130 125 124 124 123 122 120 120 120 119 119 117 115 114 116 120 123 125 125 125 124 123 122 121 120 119 118 119 120 121 121 121 121 120 120 118 115 112 110 110 111 114 117 117 115 111 107 107 110 116 122 124
40 39 42 48 37 28 158 170 163 158 153 148 135 132 134 135 127 121 119 120 121 122 122 121 120 119 117 114 112 110 111 115 119 122 122 122 122 123 122 121 120 119 118 118 119 120 121 121 121 121 120 117 114 111 109 107 108 109 111 112 106 101 96 95 97 103 110 117 118
22 16 10 6 353 328 264 173 155 146 140 133 129 129 129 125 118 116 116 118 119 120 120 119 119 118 116 113 110 109 110 113 117 119 120 120 120 121 121 120 119 118 117 117 119 120 121 121 121 120 118 115 112 111 109 108 108 108 107 103 95 89 85 84 88 93 98 101 101
9 359 344 328 312 290 231 157 139 131 127 125 125 124 121 116 115 115 115 116 116 116 116 116 116 116 115 114 112 112 111 112 114 115 117 117 116 116 116 116 116 115 115 116 119 120 121 120 119 117 115 113 111 110 110 110 109 107 103 97 90 83 79 76 79 82 83 83 82
328 311 295 285 270 236 173 138 127 122 121 121 120 118 116 114 114 114 115 114 113 113 112 112 113 114 115 114 114 113 112 112 111 111 111 111 110 110 110 110 111 112 114 116 118 120 120 118 116 115 113 112 112 111 111 110 111 109 105 98 91 84 79 75 76 76 76 75 76
239 242 245 246 217 172 141 126 121 119 118 117 116 115 115 115 114 114 113 112 111 111 111 111 112 113 114 114 114 113 113 112 110 109 107 106 106 106 105 104 106 107 109 112 116 119 120 118 116 115 114 113 113 112 112 112 114 113 109 102 96 90 84 78 76 76 77 78 79
220 220 215 197 163 141 126 118 118 118 117 115 115 115 114 114 114 113 112 111 110 111 111 111 111 112 112 112 111 111 110 111 110 108 107 105 105 104 103 101 102 102 104 109 115 118 120 120 120 119 118 116 114 113 113 116 119 116 112 107 104 99 93 84 80 78 79 81 83
200 189 172 150 136 125 117 115 116 116 115 115 115 114 113 113 112 112 111 111 111 111 111 110 110 110 110 109 108 107 106 107 108 108 108 108 106 104 103 101 101 102 106 113 118 121 122 122 122 121 120 117 115 115 115 118 115 111 108 107 106 105 101 95 89 84 81 81 83
156 145 134 126 117 113 112 114 114 114 114 114 114 113 112 112 111 110 110 110 110 109 108 107 107 106 106 104 104 104 104 105 106 107 107 108 107 106 106 105 104 105 111 119 123 124 124 123 121 119 116 113 113 115 116 116 108 104 102 102 103 104 103 102 99 94 89 84 84
122 116 112 109 107 107 109 111 111 111 112 112 112 111 111 110 109 109 108 108 108 107 105 103 103 102 101 100 100 101 101 102 103 104 104 105 106 107 107 106 105 110 117 124 126 125 124 121 118 115 112 110 110 112 113 112 106 102 99 99 100 101 101 102 101 99 96 93 89
106 105 103 103 104 105 106 107 108 109 109 109 109 108 108 108 107 107 107 106 105 104 102 102 100 98 97 98 98 98 98 99 100 102 102 103 104 104 105 105 106 113 120 125 124 122 120 117 115 113 111 110 109 109 108 105 104 102 100 99 99 100 101 101 101 101 101 101 98
101 102 101 101 102 102 103 104 105 105 106 106 106 106 106 105 105 104 104 102 101 100 101 101 100 99 98 99 98 98 97 98 99 100 102 103 104 104 105 105 108 113 118 120 118 116 115 114 112 111 109 107 106 104 102 100 101 101 100 99 98 98 100 101 103 105 106 107 101
99 99 99 99 99 99 100 101 102 103 103 104 104 103 103 103 102 101 100 100 99 99 100 100 100 99 99 99 98 98 98 97 98 98 100 103 104 104 103 103 105 108 111 113 112 111 111 110 109 108 107 106 103 101 98 96 96 97 97 97 96 96 97 99 100 101 101 100 95
97 98 98 97 98 98 99 100 101 102 102 102 101 101 100 99 99 99 99 100 100 101 101 100 100 99 99 98 97 97 96 96 96 97 99 101 101 100 98 97 99 103 106 108 108 107 107 106 106 106 105 104 102 99 96 94 92 91 90 89 88 88 90 93 92 90 86 85 84
95 96 96 96 96 97 98 100 101 101 101 100 99 98 98 98 98 98 99 99 100 101 101 100 100 100 100 99 98 96 95 95 95 96 97 98 97 95 94 92 95 99 103 105 105 105 104 105 105 105 105 104 101 98 96 94 92 89 86 83 81 81 83 85 85 83 81 79 80
93 93 93 94 95 97 98 99 100 100 99 98 97 97 97 98 98 98 98 98 98 97 97 97 97 98 98 98 98 97 96 96 95 95 94 94 92 91 90 89 93 98 102 103 104 104 105 105 106 105 103 100 97 94 93 93 91 89 87 85 83 82 81 81 81 82 82 84 86
92 92 92 93 94 95 96 97 97 97 96 96 95 95 94 95 95 96 97 96 95 93 92 92 92 92 92 92 93 95 96 96 95 94 92 90 88 87 86 87 91 97 101 104 105 106 107 107 106 103 100 96 93 93 93 92 91 89 88 87 84 82 80 79 80 82 84 89 93
92 92 93 92 93 93 94 94 94 93 93 92 93 92 92 92 93 95 96 96 94 93 92 91 91 90 89 89 90 91 93 95 95 94 91 89 87 87 87 88 90 95 99 103 105 106 106 105 103 101 98 95 93 92 93 92 91 89 87 85 83 80 79 79 80 83 86 91 96
90 91 92 91 91 91 91 91 91 91 90 90 91 91 92 92 93 94 95 96 94 93 91 90 88 88 89 90 90 90 91 93 94 94 92 90 90 90 91 91 91 93 96 100 101 102 101 100 99 98 97 95 95 93 92 91 90 88 85 83 81 80 80 81 81 83 86 91 98
86 88 90 90 90 90 90 90 90 90 90 90 90 90 91 91 92 92 93 94 93 92 90 87 86 87 88 89 89 89 89 90 92 92 92 91 93 94 95 93 90 90 91 94 95 96 96 97 97 98 98 98 98 97 95 93 91 90 88 86 84 83 82 84 84 86 89 96 105
82 85 87 88 88 88 88 88 88 89 90 90 89 88 88 88 89 89 89 89 90 90 89 87 86 86 87 87 88 87 87 87 88 89 90 91 92 93 93 91 87 86 87 90 92 94 95 97 98 98 98 98 98 98 97 96 95 93 92 91 90 88 85 86 88 92 98 105 112
78 81 83 85 86 86 86 85 86 86 87 88 87 87 87 88 89 88 87 85 85 85 86 85 85 84 84 84 85 85 84 83 82 83 85 87 88 88 89 88 87 86 87 90 93 95 97 98 99 98 97 95 96 97 98 99 98 96 96 95 96 94 92 91 94 99 105 110 115
74 77 79 81 82 83 84 84 83 84 84 85 86 87 88 88 87 85 83 82 81 81 82 81 81 80 79 79 79 80 79 78 77 77 79 82 83 85 87 90 91 92 94 96 98 100 100 100 99 99 98 97 96 97 98 99 99 99 100 101 102 103 103 101 101 103 107 113 116